Regional Weather Roundup
Issued by NWS Upton, NY

Current Version | Previous Version | Graphics & Text | Print | Product List | Glossary Off
Versions: 1 2 3 4 5 6 7 8 9 10 11 12 13 14 15 16 17 18 19 20 21 22 23 24 25 26 27 28 29 30 31 32 33 34 35 36 37 38 39 40 41 42 43 44 45 46 47 48 49 50

000
ASUS41 KOKX 260307
RWROKX

REGIONAL WEATHER ROUNDUP
NATIONAL WEATHER SERVICE NEW YORK NY
1100 PM EDT WED MAR 25 2015

NOTE: "FAIR" INDICATES FEW OR NO CLOUDS BELOW 12,000 FEET WITH NO
SIGNIFICANT WEATHER AND/OR OBSTRUCTIONS TO VISIBILITY.

NYZ071-072-176-178-NJZ106-104-260400-
NEW YORK CITY METRO AREA


CITY           SKY/WX    TMP DP  RH WIND       PRES   REMARKS
CENTRAL PARK   CLOUDY    43  39  86 CALM      30.21F FOG
LAGUARDIA APRT LGT RAIN  41  37  87 NE5       30.19F FOG
KENNEDY INTL   LGT RAIN  42  39  89 E3        30.20F
NEWARK/LIBERTY CLOUDY    41  37  87 CALM      30.19F
BRNX BOT. GARD   N/A     39  39 100 CALM      30.21R
TETERBORO      CLOUDY    40  38  93 CALM      30.18F FOG
$$

NYZ177-179-078>081-260400-
LONG ISLAND NEW YORK

CITY           SKY/WX    TMP DP  RH WIND       PRES   REMARKS
FARMINGDALE    CLOUDY    42  40  92 SE6       30.19F
ISLIP          CLOUDY    43  40  89 SE8       30.18F
SHIRLEY        LGT RAIN  43  41  93 S9        30.21S
WESTHAMPTON    CLOUDY    43  40  89 S8        30.21F
MONTAUK POINT    N/A     41  37  86 SE5       30.22F
$$

NYZ052-065-067-260400-
HUDSON VALLEY

CITY           SKY/WX    TMP DP  RH WIND       PRES   REMARKS
WHITE PLAINS   CLOUDY    36  35  96 CALM      30.17F FOG
NEWBURGH       CLOUDY    36  36 100 CALM      30.18F FOG
MONTGOMERY     FOG       36  35  96 CALM      30.17S VSB 1
POUGHKEEPSIE   FOG       36  34  92 CALM      30.19F VSB 1
ALBANY         CLOUDY    38  31  76 S18G28    30.10F WCI  28
$$

NJZ001-105-106-008-010-013-015-019>022-104-260400-
NEW JERSEY

CITY           SKY/WX    TMP DP  RH WIND       PRES   REMARKS
NEWARK/LIBERTY CLOUDY    41  37  87 CALM      30.19F
TETERBORO      CLOUDY    40  38  93 CALM      30.18F FOG
CALDWELL       CLOUDY    38  35  89 CALM      30.19F FOG
MORRISTOWN     CLOUDY    39  37  93 CALM      30.18F FOG
SOMERVILLE     CLOUDY    40  37  89 CALM      30.17F FOG
SUSSEX         CLOUDY    37  35  92 CALM      30.17F FOG
ANDOVER          N/A     37  36  96 CALM      30.16F
TRENTON        CLOUDY    40  37  89 NE5       30.17F
MILLVILLE      CLOUDY    45  43  93 CALM      30.17F
ATLANTIC CITY  CLOUDY    45  43  93 CALM      30.19S
WRIGHTSTOWN    CLOUDY    40  40  99 N2        30.16F
TOMS RIVER     CLOUDY    41  39  93 CALM      30.19S
BELMAR         CLOUDY    43  37  81 CALM      30.18F
$$

PAZ047>061-062-071-260400-
EASTERN PENNSYLVANIA

CITY           SKY/WX    TMP DP  RH WIND       PRES   REMARKS
PHILADELPHIA   CLOUDY    43  39  86 E5        30.18F
ALLENTOWN      CLOUDY    40  35  83 CALM      30.17F
SCRANTON       CLOUDY    41  33  73 SW7       30.12F
$$

CTZ002-004>006-009-010-012-RIZ004-006-007-MAZ004-011-015-260400-
SOUTHERN NEW ENGLAND
 IN CT

CITY           SKY/WX    TMP DP  RH WIND       PRES   REMARKS
BRADLEY INTL   DRIZZLE   37  34  89 SW6       30.18F FOG     WCI  32
HARTFORD       CLOUDY    36  34  92 S6        30.20F WCI  31
DANBURY        CLOUDY    35  32  88 SE3       30.19F FOG
WTRBRY/OXFORD  CLOUDY    36  28  75 S3        30.18F
BRIDGEPORT     CLOUDY    38  35  89 E3        30.20F
MERIDEN        CLOUDY    36  34  92 S3        30.20F FOG
NEW HAVEN      CLOUDY    37  34  89 E3        30.20F
CHESTER        CLOUDY    36  36 100 S6        30.20F WCI  31
GROTON         RAIN      38  35  89 SE8       30.20F FOG     WCI  32
WILLIMANTIC    CLOUDY    36  33  89 S5        30.20F WCI  32

 IN RI

CITY           SKY/WX    TMP DP  RH WIND       PRES   REMARKS
PROVIDENCE     LGT RAIN  37  35  92 S9        30.21F WCI  30
BLOCK ISLAND   CLOUDY    41  36  81 S9        30.21F
WESTERLY       LGT RAIN  39  37  92 S7        30.22F FOG     WCI  34

 IN MA

CITY           SKY/WX    TMP DP  RH WIND       PRES   REMARKS
BOSTON         CLOUDY    37  33  85 S10       30.19F WCI  30
WORCESTER      LGT RAIN  34  32  92 SW10      30.14F WCI  26
WESTFIELD      CLOUDY    35  33  92 S8        30.17F FOG     WCI  29
PROVINCETOWN   CLOUDY    37  30  75 S13       30.22F WCI  29
NANTUCKET      CLOUDY    39  33  79 S13       30.27S WCI  31
$$

ANZ330-335-338-340-345-350-353-355-260400-
COASTAL MARINE OBSERVATIONS


STATION/POSITION TIME  SKY/WX   TEMP    WIND        PRES    VSBY  WAVE
                                AIR SEA DIR/SP/G                  HT/PER
                 (UTC)          (F)     (DEG/KT/KT) (MB)    (MI)  (FT/S)
NY HARB ENTRANCE 0250            40 38   90/  6/  6 1021.9          1/ 8
4S FIRE IS       0203               37                N/A           1/ 8
20S FIRE ISLAND  0150               38              1023.5          2/ 3
23SW MTP         0250                                 N/A           2/ 3
HUDSON CANYON    NOT AVBL
EXECUTION ROCKS  NOT AVBL
WESTERN LI SOUND NOT AVBL
CENTRAL LI SOUND NOT AVBL
EASTERN LI SOUND NOT AVBL
ROBBINS REEF     0200            39     180/  2/  2 1021.9
$$


>>>>>>>>>>>>>>>>>>>>>>>>>>>> KEY <<<<<<<<<<<<<<<<<<<<<<<<<<<
>                                                          <
>     SKY/WX - SKY CONDITION/PRESENT WEATHER               <
>     TMP    - TEMPERATURE IN FAHRENHEIT                   <
>     DP     - DEWPOINT IN FAHRENHEIT                      <
>     RH     - RELATIVE HUMIDITY IN PERCENT                <
>     WIND   - DIRECTION AND SPEED IN MPH                  <
>     PRES   - MEAN SEA LEVEL PRESSURE IN INCHES OF HG     <
>     WCI    - WIND CHILL INDEX                            <
>     VSB    - VISIBILITY IN MILES                         <
>     HX     - HEAT INDEX                                  <
>     TC     - TEMPERATURE IN CELSIUS                      <
>     VRB    - VARIABLE WIND DIRECTION                     <
>                                                          <
>>>>>>>>>>>>>>>>>>>>>>>>>>>> KEY <<<<<<<<<<<<<<<<<<<<<<<<<<<




USA.gov is the U.S. government's official web portal to all federal, state and local government web resources and services.